Eelde, Netherlands

9:10 AM CET on February 20, 2018 (GMT +0100)
Eelde

Weather History for EHGG - October, 2013

Change the Weather History Date:

Monday, October 28, 2013

  Actual Average Record
Temperature  
Mean Temperature 56 °F -  
Max Temperature 62 °F 48 °F 69 °F (2005)
Min Temperature 50 °F 36 °F 21 °F (1997)
Degree Days  
Heating Degree Days 9    
Growing Degree Days 6 (Base 50)    
Moisture  
Dew Point 50 °F    
Average Humidity 80    
Maximum Humidity 100    
Minimum Humidity 60    
Precipitation  
Precipitation 0.04 in 0.10 in - ()
Sea Level Pressure  
Sea Level Pressure 29.30 in    
Wind  
Wind Speed 22 mph ()    
Max Wind Speed 61 mph    
Max Gust Speed 72 mph    
Visibility 6.3 miles    
Events Rain    
Averages and records for this station are not official NWS values.
T = Trace of Precipitation, MM = Missing Value Source: Averaged Metar Reports

Daily Weather History Graph

Daily Weather History Graph

Search for Another Location

Airport or City:

Trip Planner

Search our weather history database for the weather conditions in past years. The results will help you decide how hot, cold, wet, or windy it might be!

Date:

Astronomy

Oct. 28, 2013 Rise Set
Actual Time 7:24 AM CET 5:09 PM CET
Civil Twilight 6:48 AM CET 5:45 PM CET
Nautical Twilight 6:07 AM CET 6:26 PM CET
Astronomical Twilight 5:27 AM CET 7:06 PM CET
Moon 12:12 AM CET (10/28) 2:28 PM CET (10/28)
Length of Visible Light 10h 57m
Length of Day
9h 45m
Last Quarter, 36% of the Moon is Illuminated
Oct 28
Last Quarter
Nov 3
New
Nov 10
First Quarter
Nov 17
Full
Nov 25
Last Quarter

Hourly Weather History & Observations

Time (CET) Temp. Dew Point Humidity Pressure Visibility Wind Dir Wind Speed Gust Speed Precip Events Conditions
12:25 AM 57.2 °F 48.2 °F 72% 29.44 in 6.2 mi SW 21.9 mph - N/A   Mostly Cloudy
12:55 AM 57.2 °F 50.0 °F 77% 29.44 in 6.2 mi SW 24.2 mph - N/A   Overcast
1:00 AM 57 °F 49 °F 67% 29.46 in 9 mi SW 22.4 mph - -   Partly Cloudy
1:25 AM 57.2 °F 48.2 °F 72% 29.44 in 6.2 mi SW 25.3 mph - N/A   Scattered Clouds
1:55 AM 55.4 °F 50.0 °F 82% 29.42 in 6.2 mi SW 26.5 mph - N/A   Mostly Cloudy
2:25 AM 53.6 °F 51.8 °F 94% 29.42 in 5.6 mi SSW 17.3 mph - N/A Rain Light Rain
2:55 AM 53.6 °F 51.8 °F 94% 29.39 in 5.0 mi South 13.8 mph - N/A   Drizzle
3:25 AM 53.6 °F 51.8 °F 94% 29.36 in 6.2 mi South 13.8 mph - N/A   Drizzle
3:55 AM 53.6 °F 51.8 °F 94% 29.36 in 3.1 mi South 13.8 mph - N/A Rain Light Rain
4:25 AM 53.6 °F 53.6 °F 100% 29.33 in 6.2 mi South 16.1 mph - N/A   Heavy Drizzle
4:55 AM 55.4 °F 53.6 °F 94% 29.30 in 6.2 mi South 17.3 mph - N/A Rain Light Rain
5:25 AM 55.4 °F 53.6 °F 94% 29.27 in 5.6 mi South 17.3 mph - N/A Rain Light Rain Showers
5:55 AM 55.4 °F 53.6 °F 94% 29.21 in 6.2 mi South 15.0 mph - N/A Rain Light Rain
6:25 AM 55.4 °F 53.6 °F 94% 29.18 in 3.7 mi South 19.6 mph 33.4 mph N/A Rain Rain
6:55 AM 57.2 °F 53.6 °F 88% 29.18 in 3.1 mi South 20.7 mph - N/A Rain Rain
7:00 AM 57 °F 54 °F 88% 29.18 in 3 mi SSW 24.6 mph - - Rain Rain
7:25 AM 57.2 °F 53.6 °F 88% 29.15 in 4.3 mi SSW 23.0 mph 35.7 mph N/A Rain Light Rain Showers
7:55 AM 57.2 °F 53.6 °F 88% 29.12 in 6.2 mi SSW 24.2 mph - N/A   Heavy Drizzle
8:25 AM 57.2 °F 53.6 °F 88% 29.12 in 6.2 mi SSW 21.9 mph 34.5 mph N/A   Overcast
8:55 AM 59.0 °F 53.6 °F 82% 29.09 in 6.2 mi SSW 21.9 mph - N/A   Overcast
9:25 AM 59.0 °F 53.6 °F 82% 29.12 in 6.2 mi SSW 21.9 mph 35.7 mph N/A   Overcast
9:55 AM 60.8 °F 53.6 °F 77% 29.09 in 6.2 mi SSW 25.3 mph 38.0 mph N/A   Overcast
10:00 AM 60 °F 53 °F 71% 29.08 in 28 mi SSW 24.6 mph - -   Partly Cloudy
10:25 AM 59.0 °F 53.6 °F 82% 29.06 in 5.0 mi SSW 24.2 mph - N/A   Mostly Cloudy
10:55 AM 62.6 °F 53.6 °F 72% 29.03 in 6.2 mi SSW 28.8 mph 43.7 mph N/A   Mostly Cloudy
11:25 AM 62.6 °F 53.6 °F 72% 29.03 in 6.2 mi SSW 32.2 mph 51.8 mph N/A   Mostly Cloudy
11:55 AM 60.8 °F 48.2 °F 63% 29.06 in 6.2 mi SW 44.9 mph 57.5 mph N/A   Scattered Clouds
12:25 PM 55.4 °F 50.0 °F 82% 29.06 in 6.2 mi SW 61.0 mph 72.5 mph N/A Rain Light Rain
12:55 PM 59.0 °F 50.0 °F 72% 29.12 in 6.2 mi WSW 44.9 mph 59.8 mph N/A   Scattered Clouds
1:00 PM 58 °F 49 °F 63% 29.16 in 10 mi WSW 47.0 mph - - Rain Rain
1:25 PM 57.2 °F 46.4 °F 67% 29.15 in 6.2 mi WSW 40.3 mph 59.8 mph N/A   Scattered Clouds
1:55 PM 57.2 °F 46.4 °F 67% 29.21 in 6.2 mi WSW 36.8 mph 55.2 mph N/A   Overcast
2:25 PM 55.4 °F 44.6 °F 67% 29.24 in 6.2 mi WSW 36.8 mph 48.3 mph N/A   Mostly Cloudy
2:55 PM 55.4 °F 46.4 °F 72% 29.27 in 6.2 mi WSW 32.2 mph 47.2 mph N/A   Mostly Cloudy
3:25 PM 55.4 °F 44.6 °F 67% 29.30 in 6.2 mi WSW 29.9 mph 49.5 mph N/A   Mostly Cloudy
3:55 PM 55.4 °F 44.6 °F 67% 29.33 in 6.2 mi WSW 32.2 mph 46.0 mph N/A   Scattered Clouds
4:00 PM 56 °F 46 °F 60% 29.34 in 22 mi WSW 29.1 mph - -   Partly Cloudy
4:25 PM 55.4 °F 46.4 °F 72% 29.33 in 6.2 mi WSW 23.0 mph - N/A   Mostly Cloudy
4:55 PM 55.4 °F 46.4 °F 72% 29.36 in 6.2 mi WSW 21.9 mph - N/A   Partly Cloudy
5:25 PM 53.6 °F 46.4 °F 77% 29.36 in 6.2 mi WSW 21.9 mph - N/A   Unknown
5:55 PM 53.6 °F 46.4 °F 77% 29.36 in 6.2 mi WSW 24.2 mph - N/A   Partly Cloudy
6:25 PM 53.6 °F 46.4 °F 77% 29.39 in 6.2 mi SW 20.7 mph - N/A   Mostly Cloudy
6:55 PM 53.6 °F 48.2 °F 82% 29.42 in 6.2 mi WSW 15.0 mph - N/A Rain Light Rain
7:00 PM 53 °F 48 °F 76% 29.42 in 16 mi WSW 13.4 mph - - Rain Light Rain Showers
7:25 PM 53.6 °F 48.2 °F 82% 29.42 in 6.2 mi SW 15.0 mph - N/A   Mostly Cloudy
7:55 PM 53.6 °F 46.4 °F 77% 29.44 in 6.2 mi SW 19.6 mph - N/A   Scattered Clouds
8:25 PM 51.8 °F 46.4 °F 82% 29.44 in 6.2 mi SW 18.4 mph - N/A   Partly Cloudy
8:55 PM 51.8 °F 46.4 °F 82% 29.44 in 6.2 mi SW 19.6 mph - N/A   Mostly Cloudy
9:25 PM 51.8 °F 46.4 °F 82% 29.47 in 6.2 mi SW 19.6 mph - N/A   Unknown
9:55 PM 51.8 °F 46.4 °F 82% 29.47 in 6.2 mi SW 18.4 mph - N/A   Partly Cloudy
10:00 PM 52 °F 47 °F 77% 29.51 in 15 mi SW 17.9 mph - - Rain Light Rain Showers
10:25 PM 51.8 °F 48.2 °F 88% 29.50 in 6.2 mi SW 18.4 mph - N/A   Mostly Cloudy
10:55 PM 51.8 °F 46.4 °F 82% 29.50 in 6.2 mi SW 18.4 mph - N/A   Scattered Clouds
11:25 PM 50.0 °F 46.4 °F 87% 29.53 in 6.2 mi SSW 13.8 mph - N/A   Partly Cloudy
11:55 PM 50.0 °F 48.2 °F 94% 29.53 in 6.2 mi SSW 15.0 mph - N/A   Scattered Clouds